RH
53 52 44 44 51 37 13 10 9 10 11 14 17 12 9 10 25 32 21 42 64 95 100 100 100 100 100 100 100 100 100 100 99 100 94 83 65 62 65 64 60 57 56
51 40 31 24 23 17 10 11 15 16 14 10 8 9 16 42 77 99 100 100 100 100 100 100 100 100 100 100 95 91 85 79 73 68 71 69 67 70 65 62 64 70 72
27 19 21 20 16 28 54 36 18 10 9 10 11 22 51 89 100 100 100 100 100 100 100 100 100 100 100 98 97 93 90 86 83 75 69 67 62 60 60 59 59 64 70
30 20 15 17 54 76 65 14 10 10 12 16 31 60 98 100 100 100 96 94 92 90 93 98 94 96 99 99 95 87 77 65 55 44 33 21 14 10 10 11 13 21 25
28 33 36 40 31 28 14 12 12 15 26 69 97 100 100 100 100 100 100 100 100 100 100 100 98 93 85 76 62 42 26 15 11 10 11 13 13 14 14 13 12 11 11
33 58 69 48 48 20 12 14 18 51 82 92 100 100 100 100 100 100 99 94 94 99 100 100 92 70 53 40 20 11 11 14 15 13 10 11 12 14 21 24 20 15 13
52 53 38 41 41 14 18 35 82 96 93 95 98 97 96 94 92 92 93 94 93 93 86 76 62 39 20 15 15 15 13 10 17 24 29 31 34 37 39 40 42 46 49
48 36 22 15 14 23 59 84 89 91 93 95 96 92 88 85 79 76 72 70 69 63 54 41 27 17 16 15 14 11 21 38 55 63 69 80 83 86 86 75 50 35 53
68 39 16 16 35 68 78 82 80 75 63 47 36 30 28 29 28 29 28 27 27 27 25 23 17 17 15 12 16 43 63 77 83 92 93 88 76 87 88 86 91 48 36
46 20 18 37 68 71 70 61 38 28 24 21 18 16 15 15 15 14 13 14 15 16 17 17 16 14 13 40 61 75 89 85 83 84 88 82 78 86 96 86 84 84 59
18 21 39 66 72 70 49 28 23 21 19 16 15 15 15 16 16 15 14 12 10 11 12 14 14 21 62 69 82 56 31 41 66 71 90 99 94 83 89 94 88 77 57
21 36 71 76 76 48 31 25 22 19 17 17 18 22 25 30 31 26 21 17 14 14 16 24 61 95 81 90 57 35 36 39 38 54 80 89 94 93 89 84 84 81 75
28 75 86 81 56 38 29 25 22 18 19 24 27 30 35 36 32 30 28 26 25 26 92 100 100 100 100 64 36 47 50 51 57 60 61 54 56 58 68 79 96 100 100
66 94 87 70 48 37 30 26 20 20 26 29 38 57 65 68 47 29 28 29 55 100 100 100 100 100 86 40 60 68 57 52 49 47 43 49 57 81 95 96 97 92 90
96 96 79 62 49 37 31 27 20 24 29 30 64 83 92 96 82 46 57 85 100 100 100 100 100 100 79 56 68 65 62 54 50 37 29 20 12 14 18 14 13 17 32
100 88 70 60 48 38 34 26 24 26 32 68 87 93 99 99 100 99 100 100 100 100 100 100 100 100 81 63 63 62 65 60 54 40 32 30 25 13 9 14 51 54 49
100 76 64 59 48 39 36 25 25 41 77 83 90 98 98 99 100 100 100 100 100 100 100 100 100 100 96 89 83 76 69 60 56 48 43 39 39 36 18 11 18 54 61
90 68 60 61 51 43 40 26 28 62 83 96 95 93 100 96 100 100 99 100 100 100 100 100 100 100 100 100 97 86 74 64 62 58 52 48 47 44 42 30 16 19 26
87 55 53 64 56 49 46 29 40 69 84 92 92 86 92 96 100 98 97 100 100 100 100 100 100 100 100 100 100 98 84 76 70 62 56 55 58 58 50 50 49 23 19
82 51 59 68 63 58 52 36 40 67 79 83 91 97 92 96 100 97 96 100 100 100 100 100 100 100 100 100 100 100 100 93 81 70 67 64 60 52 58 57 56 61 47
65 49 71 71 65 66 57 48 33 60 74 81 91 96 95 100 100 99 97 99 100 100 100 100 100 100 100 100 100 100 100 97 90 85 75 69 70 51 18 23 45 62 68
50 58 79 73 68 70 64 63 36 44 69 83 90 93 98 100 100 100 100 100 100 100 100 100 100 100 100 100 100 100 100 100 96 89 81 74 72 63 26 19 18 22 50
53 73 87 75 72 78 69 71 55 35 55 76 88 97 95 100 100 100 100 100 100 100 100 100 100 100 100 100 100 100 100 100 94 85 81 80 78 73 57 33 23 23 24
74 92 93 74 80 82 74 74 71 51 38 60 78 94 97 97 100 100 100 100 100 100 100 100 100 100 100 100 100 100 100 100 99 88 85 83 84 85 74 48 32 26 29
99 98 83 79 78 79 75 73 75 71 53 41 63 80 96 100 100 100 100 100 100 100 100 100 100 100 100 100 100 100 100 99 100 95 89 84 84 96 91 71 46 36 34
100 90 76 65 71 76 74 70 72 79 71 58 46 69 84 96 100 100 100 100 100 100 100 100 100 100 100 100 100 100 100 100 100 99 95 90 91 99 99 93 75 62 48
Wind_Speed
70 72 74 75 77 79 80 82 85 89 91 91 91 87 82 75 69 67 59 54 52 48 46 47 49 51 57 61 67 68 74 79 81 77 80 81 78 75 73 71 69 68 68
73 76 77 78 78 80 85 88 89 90 90 91 85 76 66 57 51 49 46 48 46 47 47 47 47 49 52 56 60 64 67 70 73 74 67 66 64 63 63 64 64 64 64
75 76 76 76 82 86 89 92 93 91 86 75 66 58 45 41 41 42 43 44 45 46 47 48 51 51 52 54 55 56 56 58 61 63 60 61 62 61 61 62 63 63 65
78 77 79 82 85 90 95 93 87 78 67 60 51 43 42 45 45 46 48 49 51 51 50 48 46 46 48 51 52 54 55 57 59 62 62 62 64 64 64 65 66 67 67
76 80 84 84 87 92 93 84 72 65 56 48 43 43 45 48 49 50 50 48 46 44 44 45 47 49 50 50 50 52 54 57 58 60 60 59 60 62 63 63 65 68 70
83 86 92 95 94 94 82 69 63 53 48 46 45 45 46 46 47 47 45 44 43 43 44 46 47 48 50 50 51 53 53 53 54 56 53 47 41 40 39 41 45 50 59
89 93 92 91 92 74 65 57 52 51 50 48 46 44 44 44 44 44 44 43 43 45 46 46 47 47 47 48 47 47 48 44 35 33 32 33 34 38 39 39 39 38 37
86 87 91 84 69 61 53 51 51 51 49 48 48 49 49 50 50 49 48 48 48 48 47 47 45 44 45 43 42 37 29 32 38 41 40 39 40 41 42 44 44 40 39
89 88 82 67 54 50 52 51 49 51 52 54 55 56 56 55 56 55 53 51 50 49 46 44 42 39 38 36 27 25 30 33 36 36 34 31 31 34 37 40 40 44 41
86 78 65 52 49 50 49 52 54 56 58 59 58 57 57 55 55 53 51 50 47 43 40 38 35 32 27 23 23 24 24 29 29 29 27 25 25 25 26 27 27 32 42
74 63 53 49 50 50 52 55 57 58 58 55 53 52 51 49 47 45 43 40 35 29 29 28 25 21 20 17 16 16 16 18 18 16 16 18 18 18 21 24 27 29 30
63 54 49 49 48 50 53 56 58 56 52 49 46 43 41 40 40 38 36 30 23 20 19 17 16 15 12 13 10 3 9 14 13 11 10 12 17 21 24 27 29 31 32
55 48 48 46 48 51 54 57 56 52 47 42 41 38 36 36 35 33 30 20 14 13 12 11 10 10 12 8 3 4 9 13 14 14 14 15 16 18 21 23 26 29 26
47 46 44 46 49 51 54 56 52 47 43 42 38 34 31 29 27 26 20 11 8 9 8 7 7 5 5 5 1 4 7 11 14 15 16 14 16 20 24 26 27 28 26
44 43 43 46 48 49 53 53 49 46 43 39 35 32 28 24 21 18 10 4 8 8 5 2 2 1 5 5 2 5 7 9 13 17 19 20 19 17 17 15 16 16 22
41 40 43 46 46 48 50 50 47 43 39 37 34 29 23 17 13 11 3 7 9 6 3 2 1 4 8 8 2 4 6 10 13 15 19 23 25 25 21 15 10 9 8
37 37 42 44 43 46 48 47 39 37 38 35 30 24 20 15 12 5 4 10 8 4 3 3 3 6 8 6 3 1 5 8 12 13 16 20 24 28 27 21 13 10 10
32 36 41 43 41 44 46 44 36 33 32 30 28 22 19 15 6 4 10 10 6 3 2 5 5 6 6 6 3 1 4 7 11 13 14 18 22 25 28 28 21 14 10
29 34 41 42 40 43 44 42 34 32 30 29 26 24 16 7 7 4 10 10 6 3 3 3 4 4 5 3 2 2 3 6 9 10 12 15 19 22 25 27 28 24 20
27 34 40 40 40 41 42 40 33 31 30 29 25 21 13 6 7 7 11 11 8 4 3 3 2 2 1 1 1 1 3 5 6 8 10 13 17 20 21 23 25 26 25
27 34 39 39 39 39 40 38 34 29 29 28 24 18 10 8 7 9 12 12 11 8 4 3 2 1 1 1 1 2 3 5 7 9 11 12 14 18 18 18 19 22 23
28 34 38 37 38 38 39 35 33 29 28 26 23 18 10 8 7 8 14 13 13 12 10 7 5 4 2 1 3 4 5 6 8 9 11 11 13 15 15 16 16 16 18
28 33 37 36 37 38 38 33 32 29 26 25 23 18 13 9 7 6 14 16 15 15 15 13 11 9 7 6 6 6 7 8 9 10 11 12 12 12 13 14 14 14 14
29 33 35 35 37 38 37 32 30 30 26 24 22 19 14 11 10 8 8 18 19 18 18 17 17 15 13 12 11 11 11 12 12 13 14 14 14 14 13 12 12 11 12
30 32 33 35 37 38 35 31 28 28 27 24 21 20 16 12 12 10 9 10 19 23 21 21 20 20 19 18 17 17 16 17 17 16 17 18 16 16 15 14 12 12 11
29 30 32 36 38 36 32 30 28 27 28 25 22 19 19 14 11 12 10 10 11 18 24 24 23 22 22 22 21 21 21 21 21 21 21 20 19 17 17 16 15 14 13
Wind_Direction
303 303 302 301 299 299 299 300 302 304 304 304 303 302 298 295 291 288 285 278 278 278 276 272 269 264 259 256 261 260 261 260 262 264 267 269 269 267 265 263 261 259 254
305 305 304 303 302 301 302 305 306 306 305 304 301 298 296 290 285 286 285 284 281 279 279 278 276 272 270 268 266 265 265 266 267 268 268 268 266 264 263 261 258 255 253
306 305 304 303 304 305 307 308 309 308 305 304 300 297 290 286 283 282 282 282 281 280 280 280 281 277 274 273 272 272 272 271 271 271 271 269 268 265 262 260 257 254 252
307 305 305 307 307 305 308 311 310 308 306 304 300 293 289 289 288 287 286 286 286 284 283 282 280 278 277 277 276 275 273 272 272 271 271 270 269 267 265 262 260 258 255
309 311 313 312 312 314 314 312 310 308 308 305 299 294 290 288 289 289 289 288 285 283 282 280 280 281 281 279 278 276 276 276 277 276 275 273 270 268 266 264 261 259 258
314 315 316 317 315 317 314 311 311 313 310 305 300 297 293 291 289 289 287 286 285 283 280 281 284 285 284 283 282 281 281 279 277 277 278 276 270 265 263 261 261 260 256
314 316 317 317 316 314 313 314 313 310 308 306 304 301 299 296 293 291 290 289 287 286 285 285 285 285 284 284 285 284 283 283 277 273 271 269 265 265 265 263 260 260 263
313 318 320 316 315 314 315 313 310 309 307 305 304 302 299 296 293 291 289 287 285 284 284 285 285 285 287 286 285 284 279 282 282 280 277 273 269 265 261 260 258 257 260
316 322 319 316 317 315 314 312 311 311 310 308 305 302 299 297 293 291 289 286 285 284 284 284 285 286 286 286 282 282 285 281 278 278 277 272 270 267 261 257 257 253 254
322 323 318 318 317 317 316 316 316 314 312 309 306 304 301 298 295 293 290 286 284 283 282 280 281 282 284 280 289 291 294 296 295 291 282 274 269 267 266 262 261 259 252
322 321 320 319 319 319 320 319 317 315 312 310 308 306 305 303 300 298 295 294 291 280 272 274 276 279 278 291 299 305 294 298 304 303 289 270 270 269 265 266 268 265 261
321 320 318 319 320 321 321 321 320 317 316 315 314 313 311 308 305 304 301 299 287 264 256 257 260 267 287 293 285 280 11 360 354 341 317 290 280 276 274 270 268 268 264
320 319 319 320 321 322 323 324 322 321 320 322 321 319 315 310 308 307 307 301 271 238 220 226 246 265 269 253 236 13 6 355 355 349 327 307 294 285 279 275 271 265 263
318 319 320 321 323 325 326 326 325 324 323 326 326 324 320 315 311 307 306 289 220 192 195 213 232 252 204 183 131 28 3 4 2 360 352 334 312 297 289 282 274 267 259
318 319 320 322 325 327 329 329 327 326 326 328 329 326 323 318 310 309 302 243 181 165 158 165 336 239 193 187 168 14 19 18 12 9 8 6 357 346 330 310 286 277 256
317 319 321 325 327 330 332 332 331 332 331 334 333 332 331 327 318 307 286 168 152 136 123 124 326 195 195 199 204 12 23 22 17 17 15 17 18 20 12 355 342 337 316
315 318 323 327 330 334 335 336 336 335 334 336 337 339 339 331 320 316 179 158 147 133 122 128 122 170 202 223 211 34 20 16 13 18 11 13 17 22 24 22 6 347 337
313 318 325 330 333 336 338 340 339 340 339 337 338 339 337 329 319 312 172 161 150 112 119 152 122 131 162 191 182 76 30 11 10 9 11 12 13 17 21 26 28 16 349
311 320 326 331 336 339 341 342 342 342 343 342 340 338 339 322 323 213 182 175 162 125 128 145 165 149 152 162 136 66 24 4 4 0 3 11 15 16 18 21 25 29 26
312 320 328 333 338 340 341 342 342 343 344 345 343 339 338 316 321 203 194 193 186 172 141 127 138 172 183 167 124 56 23 5 359 352 350 358 3 7 12 18 20 25 30
313 321 328 334 337 338 339 341 342 341 344 346 345 341 329 316 315 213 204 208 208 205 202 180 148 130 95 4 329 334 351 0 350 339 336 342 354 356 1 10 17 23 27
315 322 329 334 336 337 337 338 341 340 342 346 345 344 327 310 316 238 215 216 220 221 224 225 214 220 227 356 338 342 341 338 335 336 338 342 345 350 355 2 12 19 23
318 323 330 332 335 335 335 335 339 339 339 344 345 343 333 303 302 291 232 225 226 230 233 237 243 248 260 281 300 312 317 326 331 338 339 335 334 333 334 342 353 3 18
318 325 329 331 333 333 333 333 335 338 337 338 342 342 334 312 294 288 271 236 233 234 238 243 247 254 264 274 285 294 301 308 315 320 325 326 317 312 311 321 332 342 349
322 327 329 330 331 332 331 331 330 335 337 335 336 339 336 321 301 286 277 269 240 238 240 244 251 257 264 271 278 283 289 293 299 305 312 312 308 299 296 300 308 316 320
324 327 329 330 329 330 330 329 331 328 333 334 333 333 335 328 310 296 282 271 269 246 243 246 250 256 261 267 272 278 282 286 291 295 299 300 296 290 286 287 290 296 300